Year,Month,Day,Hour,Minute,Value (Times are PST for temperature in C)
2017,08,03,00,00,21.20
2017,08,03,00,01,21.10
2017,08,03,00,02,21.00
2017,08,03,00,03,20.90
2017,08,03,00,04,20.80
2017,08,03,00,05,20.60
2017,08,03,00,06,20.60
2017,08,03,00,07,20.50
2017,08,03,00,08,20.40
2017,08,03,00,09,20.30
2017,08,03,00,10,20.20
2017,08,03,00,11,20.20
2017,08,03,00,12,20.10
2017,08,03,00,13,20.00
2017,08,03,00,14,19.90
2017,08,03,00,15,19.90
2017,08,03,00,16,19.90
2017,08,03,00,17,19.80
2017,08,03,00,18,19.80
2017,08,03,00,19,19.80
2017,08,03,00,20,19.80
2017,08,03,00,21,19.80
2017,08,03,00,22,19.80
2017,08,03,00,23,19.80
2017,08,03,00,24,19.80
2017,08,03,00,25,19.80
2017,08,03,00,26,19.80
2017,08,03,00,27,19.80
2017,08,03,00,28,19.80
2017,08,03,00,29,19.80
2017,08,03,00,30,19.80
2017,08,03,00,31,19.80
2017,08,03,00,32,19.80
2017,08,03,00,33,19.80
2017,08,03,00,34,19.70
2017,08,03,00,35,19.70
2017,08,03,00,36,19.70
2017,08,03,00,37,19.60
2017,08,03,00,38,19.60
2017,08,03,00,39,19.60
2017,08,03,00,40,19.50
2017,08,03,00,41,19.50
2017,08,03,00,42,19.40
2017,08,03,00,43,19.40
2017,08,03,00,44,19.40
2017,08,03,00,45,19.30
2017,08,03,00,46,19.30
2017,08,03,00,47,19.30
2017,08,03,00,48,19.20
2017,08,03,00,49,19.20
2017,08,03,00,50,19.20
2017,08,03,00,51,19.10
2017,08,03,00,52,19.10
2017,08,03,00,53,19.10
2017,08,03,00,54,19.00
2017,08,03,00,55,19.00
2017,08,03,00,56,18.90
2017,08,03,00,57,18.90
2017,08,03,00,58,18.80
2017,08,03,00,59,18.80
2017,08,03,01,00,18.80
2017,08,03,01,01,18.70
2017,08,03,01,02,18.70
2017,08,03,01,03,18.70
2017,08,03,01,04,18.70
2017,08,03,01,05,18.60
2017,08,03,01,06,18.60
2017,08,03,01,07,18.60
2017,08,03,01,08,18.60
2017,08,03,01,09,18.60
2017,08,03,01,10,18.70
2017,08,03,01,11,18.60
2017,08,03,01,12,18.60
2017,08,03,01,13,18.60
2017,08,03,01,14,18.60
2017,08,03,01,15,18.50
2017,08,03,01,16,18.50
2017,08,03,01,17,18.50
2017,08,03,01,18,18.40
2017,08,03,01,19,18.40
2017,08,03,01,20,18.30
2017,08,03,01,21,18.30
2017,08,03,01,22,18.30
2017,08,03,01,23,18.30
2017,08,03,01,24,18.30
2017,08,03,01,25,18.20
2017,08,03,01,26,18.20
2017,08,03,01,27,18.10
2017,08,03,01,28,18.10
2017,08,03,01,29,18.10
2017,08,03,01,30,18.00
2017,08,03,01,31,18.00
2017,08,03,01,32,18.00
2017,08,03,01,33,18.00
2017,08,03,01,34,18.00
2017,08,03,01,35,18.00
2017,08,03,01,36,18.00
2017,08,03,01,37,18.00
2017,08,03,01,38,17.90
2017,08,03,01,39,17.90
2017,08,03,01,40,17.90
2017,08,03,01,41,17.90
2017,08,03,01,42,18.00
2017,08,03,01,43,18.00
2017,08,03,01,44,18.00
2017,08,03,01,45,18.00
2017,08,03,01,46,18.00
2017,08,03,01,47,18.00
2017,08,03,01,48,18.00
2017,08,03,01,49,18.00
2017,08,03,01,50,17.90
2017,08,03,01,51,17.90
2017,08,03,01,52,17.90
2017,08,03,01,53,17.90
2017,08,03,01,54,17.90
2017,08,03,01,55,17.90
2017,08,03,01,56,17.80
2017,08,03,01,57,17.80
2017,08,03,01,58,17.80
2017,08,03,01,59,17.80
2017,08,03,02,00,17.80
2017,08,03,02,01,17.80
2017,08,03,02,02,17.80
2017,08,03,02,03,17.80
2017,08,03,02,04,17.80
2017,08,03,02,05,17.80
2017,08,03,02,06,17.90
2017,08,03,02,07,17.90
2017,08,03,02,08,17.90
2017,08,03,02,09,17.80
2017,08,03,02,10,17.90
2017,08,03,02,11,17.90
2017,08,03,02,12,17.90
2017,08,03,02,13,17.80
2017,08,03,02,14,17.80
2017,08,03,02,15,17.80
2017,08,03,02,16,17.80
2017,08,03,02,17,17.80
2017,08,03,02,18,17.70
2017,08,03,02,19,17.70
2017,08,03,02,20,17.70
2017,08,03,02,21,17.70
2017,08,03,02,22,17.80
2017,08,03,02,23,17.80
2017,08,03,02,24,17.80
2017,08,03,02,25,17.90
2017,08,03,02,26,17.90
2017,08,03,02,27,17.90
2017,08,03,02,28,17.90
2017,08,03,02,29,17.90
2017,08,03,02,30,17.80
2017,08,03,02,31,17.80
2017,08,03,02,32,17.70
2017,08,03,02,33,17.70
2017,08,03,02,34,17.60
2017,08,03,02,35,17.60
2017,08,03,02,36,17.60
2017,08,03,02,37,17.60
2017,08,03,02,38,17.60
2017,08,03,02,39,17.60
2017,08,03,02,40,17.50
2017,08,03,02,41,17.50
2017,08,03,02,42,17.40
2017,08,03,02,43,17.40
2017,08,03,02,44,17.30
2017,08,03,02,45,17.30
2017,08,03,02,46,17.30
2017,08,03,02,47,17.20
2017,08,03,02,48,17.20
2017,08,03,02,49,17.30
2017,08,03,02,50,17.30
2017,08,03,02,51,17.40
2017,08,03,02,52,17.40
2017,08,03,02,53,17.50
2017,08,03,02,54,17.50
2017,08,03,02,55,17.50
2017,08,03,02,56,17.50
2017,08,03,02,57,17.50
2017,08,03,02,58,17.50
2017,08,03,02,59,17.50
2017,08,03,03,00,17.50
2017,08,03,03,01,17.50
2017,08,03,03,02,17.60
2017,08,03,03,03,17.60
2017,08,03,03,04,17.60
2017,08,03,03,05,17.60
2017,08,03,03,06,17.60
2017,08,03,03,07,17.50
2017,08,03,03,08,17.50
2017,08,03,03,09,17.40
2017,08,03,03,10,17.40
2017,08,03,03,11,17.30
2017,08,03,03,12,17.30
2017,08,03,03,13,17.30
2017,08,03,03,14,17.20
2017,08,03,03,15,17.20
2017,08,03,03,16,17.20
2017,08,03,03,17,17.10
2017,08,03,03,18,17.10
2017,08,03,03,19,17.00
2017,08,03,03,20,17.00
2017,08,03,03,21,17.00
2017,08,03,03,22,16.90
2017,08,03,03,23,16.90
2017,08,03,03,24,16.90
2017,08,03,03,25,16.90
2017,08,03,03,26,16.90
2017,08,03,03,27,16.90
2017,08,03,03,28,16.90
2017,08,03,03,29,16.90
2017,08,03,03,30,17.00
2017,08,03,03,31,17.10
2017,08,03,03,32,17.20
2017,08,03,03,33,17.30
2017,08,03,03,34,17.40
2017,08,03,03,35,17.50
2017,08,03,03,36,17.60
2017,08,03,03,37,17.70
2017,08,03,03,38,17.80
2017,08,03,03,39,17.80
2017,08,03,03,40,17.80
2017,08,03,03,41,17.80
2017,08,03,03,42,17.80
2017,08,03,03,43,17.80
2017,08,03,03,44,17.80
2017,08,03,03,45,17.80
2017,08,03,03,46,17.80
2017,08,03,03,47,17.70
2017,08,03,03,48,17.70
2017,08,03,03,49,17.60
2017,08,03,03,50,17.60
2017,08,03,03,51,17.50
2017,08,03,03,52,17.50
2017,08,03,03,53,17.40
2017,08,03,03,54,17.40
2017,08,03,03,55,17.30
2017,08,03,03,56,17.30
2017,08,03,03,57,17.30
2017,08,03,03,58,17.30
2017,08,03,03,59,17.20
2017,08,03,04,00,17.20
2017,08,03,04,01,17.20
2017,08,03,04,02,17.20
2017,08,03,04,03,17.10
2017,08,03,04,04,17.10
2017,08,03,04,05,17.10
2017,08,03,04,06,17.10
2017,08,03,04,07,17.10
2017,08,03,04,08,17.00
2017,08,03,04,09,17.00
2017,08,03,04,10,17.00
2017,08,03,04,11,16.90
2017,08,03,04,12,16.90
2017,08,03,04,13,16.90
2017,08,03,04,14,16.90
2017,08,03,04,15,16.90
2017,08,03,04,16,16.80
2017,08,03,04,17,16.80
2017,08,03,04,18,16.80
2017,08,03,04,19,16.80
2017,08,03,04,20,16.70
2017,08,03,04,21,16.70
2017,08,03,04,22,16.70
2017,08,03,04,23,16.60
2017,08,03,04,24,16.60
2017,08,03,04,25,16.60
2017,08,03,04,26,16.70
2017,08,03,04,27,16.70
2017,08,03,04,28,16.70
2017,08,03,04,29,16.70
2017,08,03,04,30,16.70
2017,08,03,04,31,16.70
2017,08,03,04,32,16.60
2017,08,03,04,33,16.60
2017,08,03,04,34,16.60
2017,08,03,04,35,16.60
2017,08,03,04,36,16.60
2017,08,03,04,37,16.60
2017,08,03,04,38,16.50
2017,08,03,04,39,16.50
2017,08,03,04,40,16.50
2017,08,03,04,41,16.50
2017,08,03,04,42,16.40
2017,08,03,04,43,16.40
2017,08,03,04,44,16.30
2017,08,03,04,45,16.30
2017,08,03,04,46,16.30
2017,08,03,04,47,16.20
2017,08,03,04,48,16.20
2017,08,03,04,49,16.20
2017,08,03,04,50,16.10
2017,08,03,04,51,16.00
2017,08,03,04,52,16.00
2017,08,03,04,53,15.90
2017,08,03,04,54,15.90
2017,08,03,04,55,15.80
2017,08,03,04,56,15.70
2017,08,03,04,57,15.70
2017,08,03,04,58,15.60
2017,08,03,04,59,15.60
2017,08,03,05,00,15.60
2017,08,03,05,01,15.60
2017,08,03,05,02,15.60
2017,08,03,05,03,15.70
2017,08,03,05,04,15.70
2017,08,03,05,05,15.70
2017,08,03,05,06,15.70
2017,08,03,05,07,15.70
2017,08,03,05,08,15.70
2017,08,03,05,09,15.80
2017,08,03,05,10,15.80
2017,08,03,05,11,15.80
2017,08,03,05,12,15.80
2017,08,03,05,13,15.80
2017,08,03,05,14,15.90
2017,08,03,05,15,15.90
2017,08,03,05,16,15.90
2017,08,03,05,17,15.90
2017,08,03,05,18,15.90
2017,08,03,05,19,15.90
2017,08,03,05,20,15.90
2017,08,03,05,21,15.90
2017,08,03,05,22,15.90
2017,08,03,05,23,15.80
2017,08,03,05,24,15.80
2017,08,03,05,25,15.80
2017,08,03,05,26,15.70
2017,08,03,05,27,15.70
2017,08,03,05,28,15.70
2017,08,03,05,29,15.70
2017,08,03,05,30,15.70
2017,08,03,05,31,15.70
2017,08,03,05,32,15.80
2017,08,03,05,33,15.70
2017,08,03,05,34,15.70
2017,08,03,05,35,15.70
2017,08,03,05,36,15.70
2017,08,03,05,37,15.70
2017,08,03,05,38,15.70
2017,08,03,05,39,15.70
2017,08,03,05,40,15.70
2017,08,03,05,41,15.70
2017,08,03,05,42,15.70
2017,08,03,05,43,15.60
2017,08,03,05,44,15.60
2017,08,03,05,45,15.60
2017,08,03,05,46,15.50
2017,08,03,05,47,15.50
2017,08,03,05,48,15.50
2017,08,03,05,49,15.40
2017,08,03,05,50,15.40
2017,08,03,05,51,15.30
2017,08,03,05,52,15.30
2017,08,03,05,53,15.30
2017,08,03,05,54,15.30
2017,08,03,05,55,15.30
2017,08,03,05,56,15.30
2017,08,03,05,57,15.30
2017,08,03,05,58,15.40
2017,08,03,05,59,15.40
2017,08,03,06,00,15.40
2017,08,03,06,01,15.40
2017,08,03,06,02,15.40
2017,08,03,06,03,15.40
2017,08,03,06,04,15.40
2017,08,03,06,05,15.40
2017,08,03,06,06,15.40
2017,08,03,06,07,15.40
2017,08,03,06,08,15.40
2017,08,03,06,09,15.30
2017,08,03,06,10,15.30
2017,08,03,06,11,15.30
2017,08,03,06,12,15.30
2017,08,03,06,13,15.30
2017,08,03,06,14,15.40
2017,08,03,06,15,15.40
2017,08,03,06,16,15.40
2017,08,03,06,17,15.40
2017,08,03,06,18,15.40
2017,08,03,06,19,15.40
2017,08,03,06,20,15.40
2017,08,03,06,21,15.40
2017,08,03,06,22,15.40
2017,08,03,06,23,15.40
2017,08,03,06,24,15.50
2017,08,03,06,25,15.50
2017,08,03,06,26,15.50
2017,08,03,06,27,15.50
2017,08,03,06,28,15.60
2017,08,03,06,29,15.60
2017,08,03,06,30,15.60
2017,08,03,06,31,15.60
2017,08,03,06,32,15.60
2017,08,03,06,33,15.60
2017,08,03,06,34,15.70
2017,08,03,06,35,15.70
2017,08,03,06,36,15.70
2017,08,03,06,37,15.70
2017,08,03,06,38,15.60
2017,08,03,06,39,15.60
2017,08,03,06,40,15.60
2017,08,03,06,41,15.60
2017,08,03,06,42,15.70
2017,08,03,06,43,15.70
2017,08,03,06,44,15.70
2017,08,03,06,45,15.70
2017,08,03,06,46,15.70
2017,08,03,06,47,15.80
2017,08,03,06,48,15.90
2017,08,03,06,49,15.90
2017,08,03,06,50,16.00
2017,08,03,06,51,16.10
2017,08,03,06,52,16.10
2017,08,03,06,53,16.20
2017,08,03,06,54,16.20
2017,08,03,06,55,16.30
2017,08,03,06,56,16.40
2017,08,03,06,57,16.40
2017,08,03,06,58,16.50
2017,08,03,06,59,16.50
2017,08,03,07,00,16.60
2017,08,03,07,01,16.70
2017,08,03,07,02,16.70
2017,08,03,07,03,16.70
2017,08,03,07,04,16.70
2017,08,03,07,05,16.70
2017,08,03,07,06,16.80
2017,08,03,07,07,16.80
2017,08,03,07,08,17.00
2017,08,03,07,09,17.00
2017,08,03,07,10,17.10
2017,08,03,07,11,17.20
2017,08,03,07,12,17.20
2017,08,03,07,13,17.20
2017,08,03,07,14,17.30
2017,08,03,07,15,17.30
2017,08,03,07,16,17.30
2017,08,03,07,17,17.30
2017,08,03,07,18,17.40
2017,08,03,07,19,17.40
2017,08,03,07,20,17.50
2017,08,03,07,21,17.50
2017,08,03,07,22,17.50
2017,08,03,07,23,17.60
2017,08,03,07,24,17.70
2017,08,03,07,25,17.70
2017,08,03,07,26,17.80
2017,08,03,07,27,17.80
2017,08,03,07,28,17.90
2017,08,03,07,29,18.00
2017,08,03,07,30,18.10
2017,08,03,07,31,18.20
2017,08,03,07,32,18.30
2017,08,03,07,33,18.30
2017,08,03,07,34,18.30
2017,08,03,07,35,18.30
2017,08,03,07,36,18.30
2017,08,03,07,37,18.30
2017,08,03,07,38,18.30
2017,08,03,07,39,18.30
2017,08,03,07,40,18.30
2017,08,03,07,41,18.30
2017,08,03,07,42,18.40
2017,08,03,07,43,18.40
2017,08,03,07,44,18.40
2017,08,03,07,45,18.50
2017,08,03,07,46,18.60
2017,08,03,07,47,18.60
2017,08,03,07,48,18.70
2017,08,03,07,49,18.80
2017,08,03,07,50,18.80
2017,08,03,07,51,18.80
2017,08,03,07,52,18.90
2017,08,03,07,53,18.90
2017,08,03,07,54,19.00
2017,08,03,07,55,19.00
2017,08,03,07,56,19.10
2017,08,03,07,57,19.10
2017,08,03,07,58,19.20
2017,08,03,07,59,19.30
2017,08,03,08,00,19.30
2017,08,03,08,01,19.40
2017,08,03,08,02,19.50
2017,08,03,08,03,19.50
2017,08,03,08,04,19.60
2017,08,03,08,05,19.60
2017,08,03,08,06,19.70
2017,08,03,08,07,19.70
2017,08,03,08,08,19.70
2017,08,03,08,09,19.80
2017,08,03,08,10,19.80
2017,08,03,08,11,19.90
2017,08,03,08,12,19.90
2017,08,03,08,13,20.00
2017,08,03,08,14,20.00
2017,08,03,08,15,20.10
2017,08,03,08,16,20.10
2017,08,03,08,17,20.10
2017,08,03,08,18,20.20
2017,08,03,08,19,20.20
2017,08,03,08,20,20.30
2017,08,03,08,21,20.30
2017,08,03,08,22,20.30
2017,08,03,08,23,20.30
2017,08,03,08,24,20.40
2017,08,03,08,25,20.40
2017,08,03,08,26,20.40
2017,08,03,08,27,20.50
2017,08,03,08,28,20.60
2017,08,03,08,29,20.60
2017,08,03,08,30,20.70
2017,08,03,08,31,20.70
2017,08,03,08,32,20.70
2017,08,03,08,33,20.80
2017,08,03,08,34,20.80
2017,08,03,08,35,20.80
2017,08,03,08,36,20.80
2017,08,03,08,37,20.80
2017,08,03,08,38,20.80
2017,08,03,08,39,20.90
2017,08,03,08,40,20.90
2017,08,03,08,41,21.00
2017,08,03,08,42,21.10
2017,08,03,08,43,21.10
2017,08,03,08,44,21.20
2017,08,03,08,45,21.30
2017,08,03,08,46,21.40
2017,08,03,08,47,21.50
2017,08,03,08,48,21.50
2017,08,03,08,49,21.60
2017,08,03,08,50,21.70
2017,08,03,08,51,21.70
2017,08,03,08,52,21.70
2017,08,03,08,53,21.70
2017,08,03,08,54,21.80
2017,08,03,08,55,21.80
2017,08,03,08,56,21.80
2017,08,03,08,57,21.80
2017,08,03,08,58,21.90
2017,08,03,08,59,21.90
2017,08,03,09,00,21.90
2017,08,03,09,01,21.90
2017,08,03,09,02,21.90
2017,08,03,09,03,21.90
2017,08,03,09,04,22.00
2017,08,03,09,05,22.00
2017,08,03,09,06,22.10
2017,08,03,09,07,22.10
2017,08,03,09,08,22.20
2017,08,03,09,09,22.20
2017,08,03,09,10,22.20
2017,08,03,09,11,22.20
2017,08,03,09,12,22.20
2017,08,03,09,13,22.20
2017,08,03,09,14,22.20
2017,08,03,09,15,22.20
2017,08,03,09,16,22.30
2017,08,03,09,17,22.30
2017,08,03,09,18,22.30
2017,08,03,09,19,22.30
2017,08,03,09,20,22.30
2017,08,03,09,21,22.30
2017,08,03,09,22,22.30
2017,08,03,09,23,22.30
2017,08,03,09,24,22.40
2017,08,03,09,25,22.40
2017,08,03,09,26,22.50
2017,08,03,09,27,22.60
2017,08,03,09,28,22.70
2017,08,03,09,29,22.70
2017,08,03,09,30,22.80
2017,08,03,09,31,22.80
2017,08,03,09,32,22.80
2017,08,03,09,33,22.80
2017,08,03,09,34,22.80
2017,08,03,09,35,22.80
2017,08,03,09,36,22.80
2017,08,03,09,37,22.80
2017,08,03,09,38,22.80
2017,08,03,09,39,22.80
2017,08,03,09,40,22.80
2017,08,03,09,41,22.80
2017,08,03,09,42,22.80
2017,08,03,09,43,22.90
2017,08,03,09,44,22.90
2017,08,03,09,45,23.00
2017,08,03,09,46,23.00
2017,08,03,09,47,23.10
2017,08,03,09,48,23.10
2017,08,03,09,49,23.10
2017,08,03,09,50,23.10
2017,08,03,09,51,23.20
2017,08,03,09,52,23.20
2017,08,03,09,53,23.20
2017,08,03,09,54,23.30
2017,08,03,09,55,23.30
2017,08,03,09,56,23.40
2017,08,03,09,57,23.50
2017,08,03,09,58,23.60
2017,08,03,09,59,23.70
2017,08,03,10,00,23.80
2017,08,03,10,01,23.80
2017,08,03,10,02,23.90
2017,08,03,10,03,24.00
2017,08,03,10,04,24.00
2017,08,03,10,05,24.10
2017,08,03,10,06,24.10
2017,08,03,10,07,24.10
2017,08,03,10,08,24.20
2017,08,03,10,09,24.20
2017,08,03,10,10,24.20
2017,08,03,10,11,24.20
2017,08,03,10,12,24.20
2017,08,03,10,13,24.30
2017,08,03,10,14,24.30
2017,08,03,10,15,24.40
2017,08,03,10,16,24.40
2017,08,03,10,17,24.40
2017,08,03,10,18,24.50
2017,08,03,10,19,24.60
2017,08,03,10,20,24.70
2017,08,03,10,21,24.80
2017,08,03,10,22,24.90
2017,08,03,10,23,24.90
2017,08,03,10,24,25.00
2017,08,03,10,25,25.10
2017,08,03,10,26,25.10
2017,08,03,10,27,25.10
2017,08,03,10,28,25.20
2017,08,03,10,29,25.20
2017,08,03,10,30,25.30
2017,08,03,10,31,25.30
2017,08,03,10,32,25.30
2017,08,03,10,33,25.30
2017,08,03,10,34,25.30
2017,08,03,10,35,25.30
2017,08,03,10,36,25.30
2017,08,03,10,37,25.20
2017,08,03,10,38,25.20
2017,08,03,10,39,25.20
2017,08,03,10,40,25.20
2017,08,03,10,41,25.20
2017,08,03,10,42,25.30
2017,08,03,10,43,25.30
2017,08,03,10,44,25.40
2017,08,03,10,45,25.50
2017,08,03,10,46,25.60
2017,08,03,10,47,25.60
2017,08,03,10,48,25.70
2017,08,03,10,49,25.70
2017,08,03,10,50,25.80
2017,08,03,10,51,25.80
2017,08,03,10,52,25.80
2017,08,03,10,53,25.90
2017,08,03,10,54,26.00
2017,08,03,10,55,26.00
2017,08,03,10,56,26.00
2017,08,03,10,57,26.10
2017,08,03,10,58,26.10
2017,08,03,10,59,26.20
2017,08,03,11,00,26.30
2017,08,03,11,01,26.30
2017,08,03,11,02,26.40
2017,08,03,11,03,26.50
2017,08,03,11,04,26.60
2017,08,03,11,05,26.60
2017,08,03,11,06,26.60
2017,08,03,11,07,26.70
2017,08,03,11,08,26.70
2017,08,03,11,09,26.70
2017,08,03,11,10,26.70
2017,08,03,11,11,26.70
2017,08,03,11,12,26.70
2017,08,03,11,13,26.70
2017,08,03,11,14,26.70
2017,08,03,11,15,26.70
2017,08,03,11,16,26.70
2017,08,03,11,17,26.80
2017,08,03,11,18,26.80
2017,08,03,11,19,26.80
2017,08,03,11,20,26.80
2017,08,03,11,21,26.80
2017,08,03,11,22,26.90
2017,08,03,11,23,26.90
2017,08,03,11,24,26.90
2017,08,03,11,25,26.90
2017,08,03,11,26,26.90
2017,08,03,11,27,26.90
2017,08,03,11,28,27.00
2017,08,03,11,29,27.00
2017,08,03,11,30,27.10
2017,08,03,11,31,27.10
2017,08,03,11,32,27.20
2017,08,03,11,33,27.30
2017,08,03,11,34,27.30
2017,08,03,11,35,27.40
2017,08,03,11,36,27.40
2017,08,03,11,37,27.30
2017,08,03,11,38,27.30
2017,08,03,11,39,27.30
2017,08,03,11,40,27.30
2017,08,03,11,41,27.30
2017,08,03,11,42,27.20
2017,08,03,11,43,27.20
2017,08,03,11,44,27.20
2017,08,03,11,45,27.20
2017,08,03,11,46,27.20
2017,08,03,11,47,27.30
2017,08,03,11,48,27.30
2017,08,03,11,49,27.40
2017,08,03,11,50,27.40
2017,08,03,11,51,27.50
2017,08,03,11,52,27.50
2017,08,03,11,53,27.60
2017,08,03,11,54,27.70
2017,08,03,11,55,27.70
2017,08,03,11,56,27.70
2017,08,03,11,57,27.80
2017,08,03,11,58,27.80
2017,08,03,11,59,27.80
2017,08,03,12,00,27.90
2017,08,03,12,01,27.90
2017,08,03,12,02,27.90
2017,08,03,12,03,27.90
2017,08,03,12,04,28.00
2017,08,03,12,05,28.00
2017,08,03,12,06,28.10
2017,08,03,12,07,28.20
2017,08,03,12,08,28.40
2017,08,03,12,09,28.50
2017,08,03,12,10,28.50
2017,08,03,12,11,28.60
2017,08,03,12,12,28.60
2017,08,03,12,13,28.70
2017,08,03,12,14,28.60
2017,08,03,12,15,28.60
2017,08,03,12,16,28.60
2017,08,03,12,17,28.50
2017,08,03,12,18,28.50
2017,08,03,12,19,28.50
2017,08,03,12,20,28.50
2017,08,03,12,21,28.60
2017,08,03,12,22,28.60
2017,08,03,12,23,28.60
2017,08,03,12,24,28.60
2017,08,03,12,25,28.60
2017,08,03,12,26,28.70
2017,08,03,12,27,28.70
2017,08,03,12,28,28.70
2017,08,03,12,29,28.70
2017,08,03,12,30,28.60
2017,08,03,12,31,28.60
2017,08,03,12,32,28.60
2017,08,03,12,33,28.60
2017,08,03,12,34,28.70
2017,08,03,12,35,28.70
2017,08,03,12,36,28.80
2017,08,03,12,37,28.80
2017,08,03,12,38,28.90
2017,08,03,12,39,28.90
2017,08,03,12,40,28.90
2017,08,03,12,41,29.00
2017,08,03,12,42,29.00
2017,08,03,12,43,29.00
2017,08,03,12,44,29.00
2017,08,03,12,45,29.10
2017,08,03,12,46,29.10
2017,08,03,12,47,29.10
2017,08,03,12,48,29.10
2017,08,03,12,49,29.10
2017,08,03,12,50,29.20
2017,08,03,12,51,29.20
2017,08,03,12,52,29.20
2017,08,03,12,53,29.20
2017,08,03,12,54,29.20
2017,08,03,12,55,29.30
2017,08,03,12,56,29.40
2017,08,03,12,57,29.40
2017,08,03,12,58,29.40
2017,08,03,12,59,29.30
2017,08,03,13,00,29.40
2017,08,03,13,01,29.40
2017,08,03,13,02,29.50
2017,08,03,13,03,29.50
2017,08,03,13,04,29.60
2017,08,03,13,05,29.60
2017,08,03,13,06,29.60
2017,08,03,13,07,29.50
2017,08,03,13,08,29.40
2017,08,03,13,09,29.40
2017,08,03,13,10,29.30
2017,08,03,13,11,29.30
2017,08,03,13,12,29.30
2017,08,03,13,13,29.30
2017,08,03,13,14,29.30
2017,08,03,13,15,29.30
2017,08,03,13,16,29.30
2017,08,03,13,17,29.30
2017,08,03,13,18,29.40
2017,08,03,13,19,29.50
2017,08,03,13,20,29.60
2017,08,03,13,21,29.70
2017,08,03,13,22,29.70
2017,08,03,13,23,29.70
2017,08,03,13,24,29.70
2017,08,03,13,25,29.70
2017,08,03,13,26,29.70
2017,08,03,13,27,29.70
2017,08,03,13,28,29.70
2017,08,03,13,29,29.60
2017,08,03,13,30,29.70
2017,08,03,13,31,29.70
2017,08,03,13,32,29.70
2017,08,03,13,33,29.70
2017,08,03,13,34,29.70
2017,08,03,13,35,29.70
2017,08,03,13,36,29.70
2017,08,03,13,37,29.70
2017,08,03,13,38,29.70
2017,08,03,13,39,29.80
2017,08,03,13,40,29.80
2017,08,03,13,41,29.80
2017,08,03,13,42,29.90
2017,08,03,13,43,29.90
2017,08,03,13,44,29.90
2017,08,03,13,45,29.90
2017,08,03,13,46,29.90
2017,08,03,13,47,30.00
2017,08,03,13,48,30.00
2017,08,03,13,49,30.10
2017,08,03,13,50,30.10
2017,08,03,13,51,30.10
2017,08,03,13,52,30.20
2017,08,03,13,53,30.20
2017,08,03,13,54,30.30
2017,08,03,13,55,30.40
2017,08,03,13,56,30.40
2017,08,03,13,57,30.40
2017,08,03,13,58,30.40
2017,08,03,13,59,30.50
2017,08,03,14,00,30.50
2017,08,03,14,01,30.50
2017,08,03,14,02,30.50
2017,08,03,14,03,30.60
2017,08,03,14,04,30.70
2017,08,03,14,05,30.70
2017,08,03,14,06,30.70
2017,08,03,14,07,30.70
2017,08,03,14,08,30.60
2017,08,03,14,09,30.50
2017,08,03,14,10,30.50
2017,08,03,14,11,30.50
2017,08,03,14,12,30.50
2017,08,03,14,13,30.50
2017,08,03,14,14,30.50
2017,08,03,14,15,30.60
2017,08,03,14,16,30.60
2017,08,03,14,17,30.50
2017,08,03,14,18,30.50
2017,08,03,14,19,30.50
2017,08,03,14,20,30.50
2017,08,03,14,21,30.40
2017,08,03,14,22,30.50
2017,08,03,14,23,30.50
2017,08,03,14,24,30.50
2017,08,03,14,25,30.50
2017,08,03,14,26,30.50
2017,08,03,14,27,30.60
2017,08,03,14,28,30.60
2017,08,03,14,29,30.60
2017,08,03,14,30,30.70
2017,08,03,14,31,30.70
2017,08,03,14,32,30.80
2017,08,03,14,33,30.80
2017,08,03,14,34,30.80
2017,08,03,14,35,30.80
2017,08,03,14,36,30.80
2017,08,03,14,37,30.80
2017,08,03,14,38,30.90
2017,08,03,14,39,30.90
2017,08,03,14,40,30.90
2017,08,03,14,41,31.00
2017,08,03,14,42,31.00
2017,08,03,14,43,31.00
2017,08,03,14,44,31.00
2017,08,03,14,45,31.00
2017,08,03,14,46,31.00
2017,08,03,14,47,31.00
2017,08,03,14,48,31.00
2017,08,03,14,49,31.10
2017,08,03,14,50,31.10
2017,08,03,14,51,31.20
2017,08,03,14,52,31.20
2017,08,03,14,53,31.30
2017,08,03,14,54,31.30
2017,08,03,14,55,31.30
2017,08,03,14,56,31.40
2017,08,03,14,57,31.40
2017,08,03,14,58,31.40
2017,08,03,14,59,31.40
2017,08,03,15,00,31.40
2017,08,03,15,01,31.40
2017,08,03,15,02,31.50
2017,08,03,15,03,31.50
2017,08,03,15,04,31.40
2017,08,03,15,05,31.40
2017,08,03,15,06,31.40
2017,08,03,15,07,31.40
2017,08,03,15,08,31.30
2017,08,03,15,09,31.40
2017,08,03,15,10,31.40
2017,08,03,15,11,31.40
2017,08,03,15,12,31.40
2017,08,03,15,13,31.40
2017,08,03,15,14,31.40
2017,08,03,15,15,31.40
2017,08,03,15,16,31.50
2017,08,03,15,17,31.60
2017,08,03,15,18,31.60
2017,08,03,15,19,31.60
2017,08,03,15,20,31.70
2017,08,03,15,21,31.70
2017,08,03,15,22,31.70
2017,08,03,15,23,31.70
2017,08,03,15,24,31.70
2017,08,03,15,25,31.60
2017,08,03,15,26,31.50
2017,08,03,15,27,31.50
2017,08,03,15,28,31.50
2017,08,03,15,29,31.40
2017,08,03,15,30,31.40
2017,08,03,15,31,31.50
2017,08,03,15,32,31.40
2017,08,03,15,33,31.40
2017,08,03,15,34,31.40
2017,08,03,15,35,31.50
2017,08,03,15,36,31.60
2017,08,03,15,37,31.60
2017,08,03,15,38,31.70
2017,08,03,15,39,31.80
2017,08,03,15,40,31.80
2017,08,03,15,41,31.80
2017,08,03,15,42,31.80
2017,08,03,15,43,31.80
2017,08,03,15,44,31.80
2017,08,03,15,45,31.70
2017,08,03,15,46,31.70
2017,08,03,15,47,31.70
2017,08,03,15,48,31.70
2017,08,03,15,49,31.80
2017,08,03,15,50,31.80
2017,08,03,15,51,31.80
2017,08,03,15,52,31.90
2017,08,03,15,53,32.00
2017,08,03,15,54,32.00
2017,08,03,15,55,32.00
2017,08,03,15,56,32.00
2017,08,03,15,57,32.10
2017,08,03,15,58,32.10
2017,08,03,15,59,32.10
2017,08,03,16,00,32.20
2017,08,03,16,01,32.20
2017,08,03,16,02,32.20
2017,08,03,16,03,32.20
2017,08,03,16,04,32.20
2017,08,03,16,05,32.20
2017,08,03,16,06,32.20
2017,08,03,16,07,32.30
2017,08,03,16,08,32.30
2017,08,03,16,09,32.30
2017,08,03,16,10,32.30
2017,08,03,16,11,32.20
2017,08,03,16,12,32.20
2017,08,03,16,13,32.20
2017,08,03,16,14,32.10
2017,08,03,16,15,32.10
2017,08,03,16,16,32.10
2017,08,03,16,17,32.10
2017,08,03,16,18,32.10
2017,08,03,16,19,32.20
2017,08,03,16,20,32.20
2017,08,03,16,21,32.20
2017,08,03,16,22,32.20
2017,08,03,16,23,32.20
2017,08,03,16,24,32.20
2017,08,03,16,25,32.20
2017,08,03,16,26,32.20
2017,08,03,16,27,32.20
2017,08,03,16,28,32.10
2017,08,03,16,29,32.10
2017,08,03,16,30,32.00
2017,08,03,16,31,32.00
2017,08,03,16,32,32.00
2017,08,03,16,33,32.00
2017,08,03,16,34,32.00
2017,08,03,16,35,32.10
2017,08,03,16,36,32.10
2017,08,03,16,37,32.10
2017,08,03,16,38,32.10
2017,08,03,16,39,32.10
2017,08,03,16,40,32.10
2017,08,03,16,41,32.10
2017,08,03,16,42,32.10
2017,08,03,16,43,32.10
2017,08,03,16,44,32.20
2017,08,03,16,45,32.20
2017,08,03,16,46,32.10
2017,08,03,16,47,32.10
2017,08,03,16,48,32.10
2017,08,03,16,49,32.10
2017,08,03,16,50,32.10
2017,08,03,16,51,32.10
2017,08,03,16,52,32.10
2017,08,03,16,53,32.10
2017,08,03,16,54,32.10
2017,08,03,16,55,32.10
2017,08,03,16,56,32.10
2017,08,03,16,57,32.10
2017,08,03,16,58,32.10
2017,08,03,16,59,32.10
2017,08,03,17,00,32.10
2017,08,03,17,01,32.00
2017,08,03,17,02,32.00
2017,08,03,17,03,32.00
2017,08,03,17,04,32.00
2017,08,03,17,05,32.00
2017,08,03,17,06,32.00
2017,08,03,17,07,32.00
2017,08,03,17,08,32.00
2017,08,03,17,09,32.00
2017,08,03,17,10,32.10
2017,08,03,17,11,32.10
2017,08,03,17,12,32.10
2017,08,03,17,13,32.10
2017,08,03,17,14,32.10
2017,08,03,17,15,32.00
2017,08,03,17,16,32.00
2017,08,03,17,17,32.00
2017,08,03,17,18,31.90
2017,08,03,17,19,31.80